Location: Crescent
(42.8242°N, 73.7329°W)
Time: 17:31:13
(UTC+00:00)

Vanguard 1 - Pass Details

Date: 22 February 2026
Orbit: 653 x 3818 km, 34.2° (Epoch: 5 March)

Event Time Altitude Azimuth Distance (km) Brightness Sun altitude
Rises 18:38:31 0° 225° (SW) 3,858 14.1 33.3°
Reaches altitude 10° 18:40:55 10° 217° (SW) 3,175 14.1 33.1°
Maximum altitude 18:48:22 40° 150° (SSE) 2,429 12.8 32.5°
Drops below altitude 10° 19:01:17 10° 89° (E) 5,469 13.6 31.2°
Sets 19:06:55 0° 84° (E) 6,979 14.1 30.7°
